Heyford Park Air Base Races 2017
Skip Navigation Links
11 June 2017
HyperLink
Click a name for more detailed results
Page 1 of 5 (217 items)
[1]2345
Pos
Bib No
Fav
Share
Print
Video
Name
Time
Category
Cat Pos
Gender
Gen Pos
Club
Pace
11223Gary COOPER1:13:30.3Wheelchair1Male1COVENTRY GODIVA HARRIERS10.7 m/hr
2279Matthew KING1:14:22.4Top 31Male2WDSU10.6 m/hr
31227Alexander BETTS1:16:24.8Top 32Male3OXFORD UNIVERSITY AC10.3 m/hr
443Matt CHEYNEY1:17:17.7Top 33Male4DENMEAD STRIDERS10.2 m/hr
5643Scott CRAIG1:18:28.3Sen1Male5#SLASHTAG10.0 m/hr
6393Mark HARRIS1:19:27.3Sen2Male6TEAM TRIDENT 9.9 m/hr
79Ashley BALDWIN1:22:02.9Sen3Male7PEEL ROAD RUNNERS 9.6 m/hr
8298Christopher MILBOURNE1:22:16.2Sen4Male8  9.6 m/hr
91224Phil ODDY1:23:42.0Sen5Male9DACORUM & TRING AC 9.4 m/hr
1022Paul BRITTENDEN1:23:47.0Sen6Male10WINCHESTER & DISTRICT AC 9.4 m/hr
1145Tristan CLARKE1:24:28.6Sen7Male11HEADINGTON ROAD RUNNERS 9.3 m/hr
12306Michael MULROY1:26:22.6V401Male12WINSLOW WARRIORS 9.1 m/hr
131214Matthew MCCORMICK1:28:46.8Sen8Male13  8.9 m/hr
14362Ben TAYLOR1:29:11.3Sen9Male14  8.8 m/hr
15332Keith ROCHESTER1:29:31.3Sen10Male15VEGAN RUNNERS UK 8.8 m/hr
1696Gareth HEALY1:29:39.5V402Male16  8.8 m/hr
1739Gemma CARTER1:29:53.2Top 31Female1SERPENTINE RC 8.7 m/hr
1859Barrie DAY1:30:05.1V403Male17  8.7 m/hr
191210Chris PAUL1:30:43.4V404Male18  8.7 m/hr
20355Gerry SPENCER1:31:20.2V405Male19  8.6 m/hr
2179Martin FRAY1:31:20.3V501Male20COMPTON HARRIERS RC 8.6 m/hr
2255Stefano DANIELI1:32:22.9V406Male21SESIA RUNNING - VERCELLI - ITALY 8.5 m/hr
23314Kevin NORTHAM1:32:43.6V502Male22CHERWELL RUNNING CLUB 8.5 m/hr
24312Hamilton NICKLES1:32:57.5Sen11Male23  8.5 m/hr
2564Richard DREWETT1:32:58.4V503Male24  8.5 m/hr
26356Liz STEWARD1:33:05.5Top 32Female2DENMEAD STRIDERS 8.4 m/hr
271212James RICHARDSON1:34:59.8Sen12Male25  8.3 m/hr
28316David OLD1:35:01.4Sen13Male26STAMFORD STRIDERS 8.3 m/hr
29317Victoria OLD1:35:31.2Top 33Female3STAMFORD STRIDERS 8.2 m/hr
30380James WHATELY-SMITH1:35:57.6Sen14Male27  8.2 m/hr
3142Cally CHAMBERS1:36:30.3Sen1Female4  8.1 m/hr
32375Steve WALKER1:36:44.8V407Male28TELFORD HARRIERS 8.1 m/hr
33384Jon WILLIAMS1:37:12.6Sen15Male29READING JOGGERS 8.1 m/hr
34308Paul MYATT1:37:28.7V408Male30  8.1 m/hr
35397Graeme KERR1:37:38.8V504Male31WYCOMBE PHOENIX HARRIERS 8.0 m/hr
361231Andrew JARVIS1:37:44.7V409Male32BUCKINGHAM & STOWE RUNNING CLUB 8.0 m/hr
371233Jorge RITUERTO1:38:09.1Sen16Male33  8.0 m/hr
38339Javier SANZ-BLASCO1:38:11.5V4010Male34  8.0 m/hr
391218Richard COBLEY1:38:40.3V4011Male35  8.0 m/hr
4013David BARTRAM1:38:53.3V505Male36  7.9 m/hr
41291Kevin MAYO1:38:58.4V506Male37ADDERBURY RUNNING CLUB 7.9 m/hr
421232Ross CLELAND1:39:13.5V4012Male38  7.9 m/hr
4319Nick BIGGANE1:39:15.1V4013Male39  7.9 m/hr
4497Duncan HEDLEY1:39:37.2V4014Male40  7.9 m/hr
4594Andy HARDIMAN1:39:44.5V4015Male41  7.9 m/hr
46296Andy MCVEIGH1:40:15.9V4016Male42  7.8 m/hr
4736Kevin BYRNE1:40:34.0V601Male43HEADINGTON ROAD RUNNERS 7.8 m/hr
4899David HERRING1:40:55.3V507Male44  7.8 m/hr
49383Xavier WHITE DE GROOTE1:40:57.0Sen17Male45  7.8 m/hr
50288Richard MAYBEY1:41:59.9Sen18Male46  7.7 m/hr
Page 1 of 5 (217 items)
[1]2345
fb

HyperLink Copyright (c) G Vincent, 2017